QPF
0.09 0.09 0.08 0.08 0.07 0.09 0.09 0.12 0.14 0.15 0.15 0.16 0.16 0.14 0.13 0.11 0.09 0.08 0.06 0.05 0.06 0.07 0.06 0.05 0.05 0.04 0.05 0.06 0.09 0.10 0.11 0.11 0.10 0.08 0.05 0.04 0.05 0.06 0.06 0.07 0.05 0.03 0.02
0.12 0.11 0.09 0.09 0.09 0.10 0.11 0.13 0.14 0.16 0.15 0.14 0.10 0.11 0.12 0.14 0.10 0.08 0.06 0.06 0.05 0.05 0.06 0.06 0.07 0.07 0.07 0.07 0.09 0.10 0.11 0.11 0.09 0.08 0.07 0.06 0.05 0.06 0.07 0.09 0.09 0.08 0.06
0.13 0.12 0.12 0.11 0.11 0.12 0.12 0.12 0.13 0.14 0.12 0.09 0.08 0.09 0.10 0.10 0.07 0.07 0.06 0.06 0.05 0.03 0.03 0.04 0.06 0.07 0.07 0.08 0.11 0.12 0.11 0.11 0.10 0.08 0.07 0.07 0.06 0.05 0.06 0.08 0.10 0.11 0.10
0.18 0.16 0.14 0.14 0.13 0.12 0.12 0.11 0.10 0.10 0.09 0.08 0.07 0.07 0.07 0.07 0.05 0.05 0.04 0.03 0.03 0.03 0.04 0.04 0.05 0.05 0.05 0.06 0.10 0.12 0.10 0.09 0.08 0.07 0.07 0.06 0.05 0.04 0.03 0.04 0.06 0.07 0.06
0.28 0.23 0.17 0.13 0.12 0.11 0.09 0.06 0.06 0.06 0.06 0.05 0.04 0.04 0.04 0.04 0.04 0.03 0.02 0.02 0.02 0.03 0.03 0.03 0.02 0.02 0.03 0.04 0.08 0.10 0.10 0.08 0.06 0.06 0.07 0.07 0.07 0.05 0.03 0.03 0.03 0.04 0.04
0.26 0.26 0.20 0.12 0.09 0.08 0.07 0.05 0.06 0.05 0.04 0.03 0.02 0.01 0.01 0.01 0.01 0.01 0.01 0.01 0.01 0.01 0.01 0.02 0.03 0.01 0.01 0.02 0.04 0.06 0.08 0.08 0.06 0.05 0.05 0.06 0.07 0.06 0.04 0.03 0.02 0.02 0.02
0.29 0.28 0.22 0.14 0.10 0.06 0.05 0.05 0.05 0.04 0.03 0.02 0.01 0.01 0.00 0.00 0.00 0.00 0.00 0.00 0.00 0.00 0.00 0.01 0.02 0.01 0.01 0.01 0.01 0.02 0.04 0.06 0.06 0.05 0.04 0.05 0.06 0.05 0.04 0.03 0.02 0.01 0.01
0.26 0.23 0.17 0.12 0.09 0.06 0.05 0.04 0.04 0.03 0.02 0.01 0.01 0.00 0.00 0.00 0.00 0.00 0.00 0.00 0.00 0.00 0.00 0.00 0.01 0.01 0.01 0.02 0.01 0.01 0.02 0.03 0.05 0.06 0.06 0.06 0.05 0.04 0.03 0.02 0.02 0.01 0.01
0.18 0.19 0.18 0.12 0.08 0.06 0.05 0.04 0.04 0.03 0.02 0.01 0.01 0.00 0.00 0.00 0.00 0.00 0.00 0.00 0.00 0.00 0.00 0.00 0.00 0.00 0.01 0.01 0.01 0.01 0.01 0.01 0.04 0.06 0.07 0.06 0.04 0.03 0.03 0.03 0.03 0.03 0.02
0.10 0.12 0.15 0.13 0.09 0.07 0.06 0.05 0.03 0.03 0.02 0.02 0.01 0.00 0.00 0.00 0.00 0.00 0.00 0.00 0.00 0.00 0.00 0.00 0.00 0.00 0.00 0.01 0.02 0.01 0.00 0.00 0.01 0.04 0.07 0.07 0.04 0.03 0.03 0.03 0.04 0.04 0.04
0.09 0.09 0.10 0.10 0.09 0.09 0.08 0.06 0.04 0.02 0.02 0.02 0.02 0.01 0.01 0.00 0.00 0.00 0.00 0.00 0.00 0.00 0.00 0.00 0.00 0.00 0.00 0.00 0.01 0.01 0.01 0.01 0.01 0.01 0.03 0.06 0.06 0.04 0.04 0.04 0.05 0.06 0.06
0.06 0.08 0.09 0.10 0.10 0.10 0.10 0.08 0.06 0.05 0.04 0.03 0.03 0.02 0.01 0.01 0.01 0.00 0.00 0.00 0.00 0.00 0.00 0.00 0.00 0.00 0.00 0.00 0.00 0.00 0.00 0.00 0.00 0.01 0.02 0.03 0.04 0.05 0.05 0.05 0.06 0.08 0.09
0.03 0.03 0.06 0.08 0.09 0.10 0.11 0.11 0.09 0.08 0.07 0.06 0.05 0.04 0.03 0.02 0.02 0.01 0.01 0.00 0.00 0.00 0.00 0.00 0.00 0.00 0.00 0.01 0.00 0.00 0.00 0.00 0.00 0.01 0.01 0.02 0.02 0.03 0.04 0.04 0.05 0.07 0.08
0.03 0.02 0.02 0.03 0.05 0.06 0.08 0.10 0.11 0.11 0.10 0.09 0.08 0.08 0.07 0.05 0.04 0.03 0.02 0.01 0.01 0.00 0.00 0.00 0.00 0.00 0.01 0.01 0.00 0.00 0.00 0.00 0.00 0.01 0.01 0.01 0.01 0.02 0.03 0.04 0.04 0.04 0.05
0.02 0.02 0.02 0.02 0.02 0.02 0.03 0.05 0.07 0.10 0.13 0.13 0.12 0.11 0.11 0.09 0.08 0.06 0.04 0.03 0.02 0.01 0.01 0.01 0.01 0.01 0.01 0.01 0.00 0.00 0.00 0.00 0.01 0.01 0.01 0.01 0.01 0.01 0.01 0.02 0.03 0.03 0.03
0.00 0.01 0.01 0.02 0.02 0.02 0.02 0.02 0.03 0.04 0.07 0.12 0.17 0.18 0.15 0.13 0.13 0.10 0.07 0.05 0.03 0.03 0.02 0.01 0.02 0.01 0.01 0.00 0.00 0.00 0.00 0.01 0.01 0.01 0.01 0.01 0.01 0.01 0.01 0.01 0.01 0.02 0.02
0.00 0.00 0.00 0.01 0.01 0.01 0.01 0.01 0.02 0.02 0.03 0.05 0.08 0.14 0.20 0.21 0.18 0.15 0.12 0.08 0.05 0.04 0.04 0.03 0.02 0.02 0.01 0.00 0.00 0.00 0.00 0.00 0.00 0.00 0.00 0.01 0.01 0.01 0.01 0.01 0.01 0.01 0.02
0.00 0.00 0.00 0.00 0.01 0.01 0.01 0.01 0.01 0.02 0.02 0.03 0.04 0.06 0.10 0.18 0.23 0.22 0.18 0.14 0.10 0.08 0.06 0.06 0.05 0.04 0.02 0.01 0.01 0.01 0.00 0.00 0.00 0.00 0.00 0.01 0.01 0.01 0.02 0.02 0.01 0.01 0.02
0.01 0.01 0.01 0.01 0.01 0.00 0.00 0.01 0.02 0.02 0.02 0.02 0.03 0.04 0.07 0.10 0.15 0.21 0.24 0.19 0.14 0.11 0.10 0.09 0.07 0.06 0.03 0.02 0.01 0.01 0.01 0.01 0.00 0.00 0.00 0.01 0.01 0.01 0.01 0.01 0.01 0.01 0.02
0.01 0.01 0.01 0.01 0.01 0.01 0.00 0.00 0.01 0.01 0.02 0.02 0.02 0.02 0.04 0.06 0.10 0.15 0.18 0.20 0.19 0.16 0.12 0.10 0.10 0.08 0.04 0.02 0.02 0.01 0.01 0.01 0.01 0.00 0.00 0.00 0.01 0.01 0.01 0.01 0.01 0.01 0.02
0.02 0.02 0.02 0.02 0.02 0.02 0.01 0.00 0.01 0.01 0.02 0.02 0.03 0.03 0.02 0.03 0.05 0.09 0.13 0.16 0.19 0.19 0.17 0.13 0.11 0.09 0.05 0.03 0.02 0.01 0.01 0.01 0.01 0.01 0.00 0.00 0.00 0.00 0.00 0.01 0.01 0.01 0.02
0.04 0.04 0.04 0.05 0.04 0.01 0.00 0.00 0.00 0.01 0.02 0.02 0.03 0.03 0.03 0.02 0.02 0.03 0.06 0.10 0.13 0.15 0.18 0.18 0.14 0.10 0.05 0.03 0.02 0.01 0.01 0.01 0.01 0.01 0.01 0.01 0.01 0.01 0.00 0.00 0.01 0.02 0.02
0.06 0.07 0.07 0.07 0.06 0.04 0.02 0.01 0.00 0.01 0.02 0.02 0.03 0.03 0.02 0.02 0.02 0.02 0.02 0.04 0.06 0.07 0.10 0.14 0.16 0.14 0.10 0.04 0.02 0.01 0.01 0.01 0.01 0.01 0.01 0.01 0.01 0.01 0.01 0.01 0.02 0.02 0.01
0.08 0.08 0.08 0.08 0.09 0.07 0.03 0.01 0.00 0.01 0.03 0.03 0.03 0.04 0.03 0.02 0.02 0.02 0.03 0.03 0.03 0.03 0.04 0.05 0.10 0.15 0.17 0.14 0.07 0.03 0.03 0.03 0.02 0.01 0.01 0.02 0.01 0.02 0.01 0.01 0.01 0.02 0.02
0.09 0.09 0.08 0.08 0.09 0.08 0.04 0.01 0.01 0.02 0.03 0.03 0.03 0.02 0.03 0.03 0.02 0.01 0.02 0.03 0.04 0.04 0.03 0.03 0.05 0.10 0.14 0.14 0.12 0.06 0.03 0.03 0.03 0.02 0.01 0.01 0.01 0.01 0.01 0.01 0.01 0.01 0.01
0.09 0.09 0.08 0.08 0.08 0.09 0.06 0.02 0.01 0.02 0.03 0.04 0.04 0.03 0.01 0.01 0.01 0.01 0.02 0.03 0.04 0.05 0.05 0.04 0.04 0.06 0.07 0.09 0.10 0.08 0.04 0.03 0.02 0.02 0.01 0.01 0.01 0.01 0.01 0.01 0.01 0.01 0.00
MSLP
1012.12 1012.17 1012.20 1012.23 1012.28 1012.37 1012.50 1012.67 1012.86 1013.03 1013.18 1013.25 1013.26 1013.20 1013.11 1013.02 1012.97 1013.02 1013.18 1013.45 1013.82 1014.25 1014.71 1015.16 1015.56 1015.91 1016.20 1016.44 1016.67 1016.90 1017.16 1017.46 1017.79 1018.15 1018.52 1018.88 1019.22 1019.54 1019.82 1020.09 1020.34 1020.60 1020.87
1011.85 1011.85 1011.84 1011.83 1011.85 1011.91 1012.01 1012.17 1012.37 1012.57 1012.75 1012.88 1012.93 1012.92 1012.84 1012.75 1012.67 1012.66 1012.74 1012.93 1013.22 1013.58 1014.00 1014.42 1014.82 1015.17 1015.48 1015.75 1015.99 1016.24 1016.52 1016.84 1017.19 1017.59 1018.00 1018.40 1018.79 1019.14 1019.46 1019.74 1020.00 1020.25 1020.52
1011.64 1011.59 1011.53 1011.49 1011.47 1011.50 1011.59 1011.75 1011.96 1012.19 1012.42 1012.60 1012.71 1012.74 1012.69 1012.60 1012.50 1012.43 1012.43 1012.52 1012.71 1012.98 1013.32 1013.69 1014.06 1014.40 1014.70 1014.98 1015.24 1015.51 1015.80 1016.14 1016.52 1016.94 1017.39 1017.84 1018.26 1018.65 1019.00 1019.30 1019.57 1019.82 1020.08
1011.42 1011.33 1011.24 1011.16 1011.12 1011.12 1011.20 1011.36 1011.58 1011.84 1012.11 1012.35 1012.52 1012.60 1012.60 1012.52 1012.41 1012.29 1012.22 1012.22 1012.31 1012.48 1012.73 1013.03 1013.34 1013.65 1013.94 1014.21 1014.47 1014.75 1015.05 1015.40 1015.81 1016.26 1016.73 1017.21 1017.67 1018.09 1018.45 1018.77 1019.05 1019.31 1019.57
1011.19 1011.06 1010.95 1010.85 1010.78 1010.77 1010.84 1010.99 1011.21 1011.49 1011.80 1012.08 1012.30 1012.44 1012.48 1012.44 1012.33 1012.20 1012.08 1012.01 1012.01 1012.10 1012.26 1012.48 1012.74 1013.00 1013.26 1013.51 1013.76 1014.04 1014.35 1014.70 1015.12 1015.58 1016.07 1016.56 1017.04 1017.47 1017.85 1018.18 1018.47 1018.73 1019.00
1010.94 1010.80 1010.67 1010.56 1010.48 1010.46 1010.51 1010.65 1010.86 1011.14 1011.45 1011.75 1012.02 1012.20 1012.30 1012.29 1012.22 1012.09 1011.96 1011.86 1011.81 1011.83 1011.93 1012.08 1012.27 1012.49 1012.71 1012.94 1013.18 1013.45 1013.75 1014.10 1014.51 1014.96 1015.44 1015.93 1016.40 1016.83 1017.22 1017.55 1017.84 1018.10 1018.37
1010.72 1010.57 1010.45 1010.34 1010.26 1010.23 1010.27 1010.37 1010.55 1010.80 1011.09 1011.39 1011.66 1011.88 1012.01 1012.06 1012.03 1011.94 1011.83 1011.72 1011.66 1011.65 1011.71 1011.81 1011.96 1012.14 1012.34 1012.54 1012.76 1013.01 1013.30 1013.63 1014.01 1014.44 1014.89 1015.35 1015.79 1016.20 1016.57 1016.89 1017.17 1017.44 1017.71
1010.57 1010.44 1010.33 1010.24 1010.18 1010.15 1010.16 1010.23 1010.36 1010.55 1010.79 1011.05 1011.29 1011.51 1011.66 1011.74 1011.75 1011.71 1011.64 1011.57 1011.52 1011.51 1011.55 1011.64 1011.77 1011.93 1012.11 1012.30 1012.51 1012.74 1013.00 1013.30 1013.65 1014.02 1014.42 1014.83 1015.22 1015.58 1015.91 1016.21 1016.48 1016.74 1017.01
1010.54 1010.44 1010.37 1010.32 1010.27 1010.25 1010.24 1010.27 1010.34 1010.45 1010.60 1010.79 1010.98 1011.15 1011.29 1011.39 1011.43 1011.43 1011.40 1011.36 1011.35 1011.36 1011.41 1011.50 1011.63 1011.79 1011.97 1012.16 1012.37 1012.60 1012.84 1013.11 1013.40 1013.72 1014.05 1014.38 1014.70 1015.00 1015.27 1015.52 1015.77 1016.02 1016.28
1010.64 1010.58 1010.56 1010.56 1010.55 1010.54 1010.53 1010.52 1010.52 1010.54 1010.60 1010.68 1010.78 1010.89 1010.98 1011.05 1011.10 1011.11 1011.11 1011.11 1011.12 1011.16 1011.23 1011.34 1011.49 1011.66 1011.86 1012.07 1012.29 1012.52 1012.75 1012.99 1013.24 1013.50 1013.75 1013.99 1014.23 1014.45 1014.65 1014.86 1015.06 1015.29 1015.54
1010.81 1010.81 1010.85 1010.91 1010.96 1010.98 1010.97 1010.93 1010.88 1010.82 1010.78 1010.75 1010.75 1010.76 1010.78 1010.80 1010.82 1010.82 1010.82 1010.82 1010.84 1010.89 1010.98 1011.11 1011.28 1011.48 1011.71 1011.95 1012.20 1012.45 1012.69 1012.91 1013.13 1013.33 1013.50 1013.67 1013.81 1013.95 1014.08 1014.23 1014.39 1014.58 1014.81
1010.98 1011.04 1011.15 1011.27 1011.38 1011.45 1011.46 1011.42 1011.33 1011.22 1011.09 1010.97 1010.87 1010.79 1010.73 1010.67 1010.63 1010.59 1010.55 1010.54 1010.54 1010.58 1010.67 1010.81 1011.00 1011.23 1011.49 1011.78 1012.07 1012.35 1012.61 1012.84 1013.04 1013.20 1013.32 1013.41 1013.47 1013.53 1013.59 1013.67 1013.78 1013.94 1014.13
1011.05 1011.16 1011.33 1011.52 1011.69 1011.81 1011.87 1011.85 1011.76 1011.62 1011.45 1011.27 1011.09 1010.93 1010.79 1010.66 1010.55 1010.45 1010.36 1010.29 1010.26 1010.27 1010.33 1010.46 1010.66 1010.91 1011.22 1011.55 1011.89 1012.23 1012.53 1012.78 1012.98 1013.11 1013.19 1013.23 1013.23 1013.22 1013.22 1013.24 1013.29 1013.40 1013.56
1010.91 1011.07 1011.29 1011.53 1011.77 1011.95 1012.06 1012.08 1012.03 1011.90 1011.73 1011.53 1011.33 1011.13 1010.93 1010.75 1010.58 1010.41 1010.26 1010.13 1010.04 1010.00 1010.02 1010.13 1010.32 1010.59 1010.93 1011.31 1011.71 1012.10 1012.45 1012.74 1012.96 1013.10 1013.16 1013.16 1013.12 1013.06 1013.00 1012.96 1012.97 1013.03 1013.14
1010.53 1010.71 1010.96 1011.25 1011.53 1011.77 1011.94 1012.02 1012.03 1011.95 1011.83 1011.66 1011.47 1011.28 1011.08 1010.88 1010.67 1010.46 1010.25 1010.07 1009.91 1009.82 1009.80 1009.87 1010.05 1010.33 1010.69 1011.12 1011.57 1012.02 1012.43 1012.77 1013.02 1013.18 1013.24 1013.23 1013.17 1013.07 1012.97 1012.89 1012.85 1012.85 1012.91
1009.91 1010.09 1010.35 1010.66 1010.96 1011.24 1011.47 1011.62 1011.69 1011.70 1011.65 1011.56 1011.44 1011.30 1011.14 1010.97 1010.77 1010.55 1010.32 1010.09 1009.89 1009.75 1009.68 1009.73 1009.89 1010.16 1010.54 1011.00 1011.50 1012.01 1012.47 1012.87 1013.17 1013.36 1013.45 1013.44 1013.37 1013.26 1013.13 1013.02 1012.94 1012.90 1012.91
1009.10 1009.26 1009.51 1009.80 1010.11 1010.41 1010.67 1010.88 1011.02 1011.12 1011.16 1011.18 1011.16 1011.12 1011.05 1010.94 1010.79 1010.61 1010.39 1010.16 1009.94 1009.77 1009.68 1009.69 1009.83 1010.11 1010.50 1010.98 1011.52 1012.07 1012.59 1013.04 1013.39 1013.62 1013.75 1013.77 1013.71 1013.61 1013.48 1013.35 1013.25 1013.18 1013.14
1008.20 1008.33 1008.54 1008.80 1009.09 1009.38 1009.65 1009.88 1010.08 1010.25 1010.40 1010.52 1010.63 1010.70 1010.75 1010.75 1010.69 1010.57 1010.40 1010.20 1009.99 1009.82 1009.72 1009.72 1009.85 1010.11 1010.51 1011.01 1011.58 1012.16 1012.73 1013.23 1013.63 1013.92 1014.09 1014.15 1014.13 1014.06 1013.94 1013.83 1013.72 1013.63 1013.57
1007.32 1007.40 1007.56 1007.77 1008.01 1008.25 1008.50 1008.74 1008.96 1009.19 1009.41 1009.63 1009.85 1010.06 1010.23 1010.35 1010.40 1010.38 1010.29 1010.14 1009.97 1009.82 1009.72 1009.72 1009.84 1010.10 1010.50 1011.01 1011.59 1012.21 1012.81 1013.36 1013.82 1014.16 1014.40 1014.52 1014.56 1014.54 1014.47 1014.38 1014.30 1014.22 1014.15
1006.53 1006.55 1006.65 1006.79 1006.96 1007.15 1007.34 1007.55 1007.77 1008.01 1008.29 1008.58 1008.90 1009.21 1009.50 1009.75 1009.92 1010.00 1010.00 1009.92 1009.81 1009.69 1009.61 1009.61 1009.73 1009.99 1010.38 1010.89 1011.48 1012.12 1012.76 1013.35 1013.87 1014.29 1014.59 1014.80 1014.92 1014.97 1014.97 1014.95 1014.91 1014.87 1014.82
1005.85 1005.82 1005.85 1005.92 1006.01 1006.12 1006.25 1006.41 1006.60 1006.83 1007.12 1007.46 1007.84 1008.24 1008.63 1008.98 1009.25 1009.44 1009.52 1009.53 1009.47 1009.38 1009.33 1009.34 1009.45 1009.69 1010.07 1010.57 1011.17 1011.83 1012.49 1013.14 1013.72 1014.22 1014.62 1014.92 1015.14 1015.29 1015.39 1015.45 1015.49 1015.50 1015.50
1005.27 1005.19 1005.16 1005.16 1005.18 1005.22 1005.27 1005.36 1005.50 1005.71 1005.99 1006.35 1006.77 1007.22 1007.68 1008.11 1008.47 1008.73 1008.90 1008.96 1008.95 1008.90 1008.86 1008.87 1008.98 1009.20 1009.56 1010.05 1010.64 1011.31 1012.01 1012.70 1013.35 1013.93 1014.43 1014.85 1015.18 1015.45 1015.66 1015.82 1015.95 1016.05 1016.12
1004.75 1004.63 1004.55 1004.49 1004.45 1004.41 1004.40 1004.44 1004.53 1004.70 1004.96 1005.32 1005.75 1006.24 1006.74 1007.22 1007.64 1007.96 1008.18 1008.29 1008.31 1008.28 1008.25 1008.25 1008.34 1008.54 1008.88 1009.35 1009.93 1010.60 1011.32 1012.06 1012.77 1013.44 1014.05 1014.57 1015.03 1015.42 1015.75 1016.03 1016.26 1016.45 1016.61
1004.24 1004.09 1003.97 1003.86 1003.77 1003.69 1003.64 1003.63 1003.69 1003.84 1004.08 1004.43 1004.87 1005.37 1005.90 1006.40 1006.85 1007.21 1007.45 1007.59 1007.63 1007.60 1007.57 1007.56 1007.62 1007.80 1008.10 1008.55 1009.11 1009.78 1010.52 1011.29 1012.06 1012.81 1013.50 1014.13 1014.70 1015.20 1015.65 1016.03 1016.37 1016.65 1016.89
1003.69 1003.51 1003.37 1003.24 1003.13 1003.04 1002.97 1002.95 1003.00 1003.14 1003.38 1003.72 1004.16 1004.66 1005.19 1005.71 1006.16 1006.53 1006.78 1006.92 1006.97 1006.94 1006.89 1006.87 1006.91 1007.06 1007.34 1007.75 1008.30 1008.96 1009.70 1010.49 1011.30 1012.10 1012.86 1013.58 1014.23 1014.83 1015.36 1015.84 1016.26 1016.63 1016.95
1003.08 1002.89 1002.74 1002.62 1002.51 1002.43 1002.38 1002.37 1002.44 1002.59 1002.84 1003.19 1003.63 1004.12 1004.64 1005.15 1005.60 1005.95 1006.20 1006.34 1006.38 1006.35 1006.29 1006.25 1006.28 1006.41 1006.66 1007.06 1007.58 1008.23 1008.96 1009.76 1010.58 1011.41 1012.21 1012.97 1013.68 1014.33 1014.93 1015.47 1015.96 1016.39 1016.77
Thickness
5747 5747 5745 5744 5743 5744 5744 5743 5744 5745 5745 5746 5746 5746 5746 5747 5748 5749 5749 5746 5744 5742 5741 5741 5740 5739 5738 5738 5737 5735 5734 5733 5732 5730 5729 5728 5727 5727 5726 5725 5725 5724 5723
5741 5740 5739 5739 5739 5738 5739 5740 5741 5741 5742 5744 5744 5745 5745 5746 5745 5745 5747 5747 5744 5742 5741 5740 5739 5739 5739 5738 5737 5735 5734 5733 5732 5731 5730 5729 5728 5727 5727 5726 5725 5724 5723
5736 5735 5734 5735 5735 5734 5734 5735 5737 5737 5739 5741 5742 5743 5744 5744 5745 5745 5745 5746 5746 5744 5742 5741 5739 5739 5738 5737 5737 5736 5735 5733 5732 5731 5730 5729 5728 5727 5727 5726 5726 5725 5724
5730 5728 5728 5729 5729 5728 5730 5731 5732 5733 5735 5737 5738 5740 5742 5742 5742 5743 5744 5744 5745 5747 5745 5742 5741 5739 5738 5737 5737 5736 5735 5734 5732 5731 5730 5729 5728 5728 5727 5727 5726 5726 5725
5723 5721 5722 5723 5722 5724 5727 5728 5730 5730 5730 5731 5734 5736 5737 5739 5740 5742 5744 5744 5745 5745 5745 5744 5741 5740 5739 5738 5737 5736 5735 5734 5733 5731 5730 5729 5728 5728 5727 5727 5726 5726 5726
5715 5714 5715 5717 5718 5720 5721 5722 5723 5724 5725 5726 5730 5733 5734 5738 5739 5740 5741 5744 5744 5745 5746 5746 5744 5742 5740 5739 5737 5737 5736 5735 5733 5732 5730 5729 5728 5728 5727 5727 5726 5725 5725
5711 5709 5710 5711 5713 5715 5716 5717 5717 5718 5719 5722 5722 5724 5730 5734 5736 5737 5739 5742 5744 5745 5744 5744 5743 5745 5744 5740 5739 5737 5736 5735 5734 5732 5731 5729 5728 5727 5727 5727 5726 5726 5725
5705 5705 5705 5706 5708 5709 5710 5710 5710 5713 5716 5718 5717 5717 5720 5726 5728 5735 5736 5737 5740 5742 5743 5743 5742 5741 5742 5744 5743 5739 5737 5735 5734 5732 5730 5729 5727 5726 5726 5726 5726 5725 5724
5698 5698 5699 5701 5702 5703 5704 5704 5705 5705 5708 5713 5715 5714 5714 5718 5726 5729 5730 5733 5734 5737 5739 5741 5740 5740 5740 5741 5742 5739 5737 5735 5734 5732 5730 5728 5727 5725 5724 5724 5724 5723 5723
5688 5690 5691 5693 5693 5696 5697 5698 5702 5702 5702 5704 5708 5710 5713 5717 5716 5720 5723 5727 5728 5729 5733 5736 5738 5738 5738 5739 5739 5736 5735 5734 5733 5731 5730 5728 5726 5724 5723 5722 5722 5721 5721
5679 5680 5681 5683 5684 5685 5687 5689 5692 5694 5697 5699 5703 5705 5706 5706 5709 5712 5715 5719 5722 5727 5730 5731 5733 5735 5735 5736 5736 5735 5733 5732 5731 5730 5728 5727 5725 5723 5721 5720 5720 5719 5718
5669 5669 5669 5670 5671 5673 5674 5677 5681 5684 5687 5691 5695 5700 5701 5703 5704 5707 5709 5710 5715 5722 5725 5726 5728 5731 5731 5732 5732 5729 5729 5729 5728 5727 5726 5724 5723 5721 5719 5718 5717 5716 5716
5657 5656 5657 5656 5658 5659 5661 5664 5668 5672 5676 5679 5683 5689 5695 5700 5703 5704 5705 5709 5711 5717 5717 5721 5725 5726 5727 5726 5725 5723 5724 5724 5725 5724 5723 5721 5720 5718 5716 5715 5714 5713 5713
5645 5644 5643 5643 5644 5647 5649 5651 5654 5658 5663 5667 5672 5677 5682 5689 5695 5697 5699 5701 5702 5708 5712 5715 5719 5720 5721 5720 5718 5718 5720 5719 5719 5719 5718 5717 5715 5713 5712 5711 5710 5710 5710
5632 5631 5629 5630 5631 5633 5635 5637 5641 5643 5647 5652 5658 5664 5669 5677 5683 5688 5692 5695 5696 5697 5703 5708 5711 5713 5713 5713 5711 5714 5714 5711 5712 5712 5711 5710 5709 5708 5707 5706 5705 5705 5705
5618 5616 5616 5616 5617 5618 5620 5623 5627 5630 5633 5637 5643 5649 5656 5663 5668 5675 5680 5685 5690 5692 5697 5706 5705 5707 5706 5707 5704 5706 5705 5704 5704 5704 5704 5703 5702 5701 5701 5700 5700 5700 5700
5606 5604 5603 5603 5603 5604 5605 5607 5611 5615 5618 5623 5628 5635 5641 5647 5654 5661 5667 5674 5680 5684 5686 5694 5699 5699 5697 5697 5697 5698 5699 5699 5697 5695 5695 5695 5695 5694 5694 5694 5694 5694 5695
5593 5591 5590 5589 5589 5590 5591 5593 5595 5599 5603 5607 5613 5619 5625 5632 5638 5646 5652 5660 5667 5674 5677 5681 5686 5688 5688 5689 5689 5689 5690 5691 5690 5686 5686 5686 5686 5686 5686 5686 5687 5688 5688
5578 5577 5576 5575 5575 5575 5576 5578 5581 5584 5588 5592 5597 5603 5610 5616 5622 5631 5638 5646 5654 5662 5667 5672 5677 5680 5680 5681 5680 5680 5680 5681 5681 5678 5678 5677 5677 5677 5678 5678 5679 5680 5681
5563 5562 5561 5561 5562 5563 5564 5566 5568 5570 5573 5578 5583 5588 5595 5602 5608 5615 5624 5632 5639 5647 5655 5661 5667 5670 5671 5672 5674 5672 5670 5671 5672 5672 5670 5669 5668 5669 5669 5669 5670 5671 5672
5547 5547 5547 5548 5549 5550 5552 5555 5556 5559 5561 5565 5570 5575 5581 5588 5594 5601 5610 5619 5627 5635 5643 5650 5657 5661 5663 5664 5667 5667 5665 5663 5663 5664 5664 5663 5663 5663 5661 5660 5660 5660 5661
5530 5531 5533 5535 5536 5540 5543 5543 5546 5549 5553 5555 5559 5563 5569 5573 5578 5583 5592 5602 5611 5622 5632 5640 5649 5654 5659 5661 5663 5663 5660 5658 5657 5656 5657 5655 5656 5655 5654 5651 5649 5650 5651
5516 5516 5519 5521 5524 5527 5530 5532 5534 5539 5544 5548 5551 5554 5560 5568 5569 5575 5581 5588 5597 5608 5617 5629 5640 5649 5654 5659 5658 5657 5657 5658 5658 5653 5652 5647 5647 5646 5643 5640 5640 5640 5641
5503 5505 5507 5510 5513 5517 5519 5521 5525 5530 5538 5542 5545 5548 5550 5555 5561 5565 5571 5580 5591 5602 5612 5620 5632 5642 5648 5652 5654 5656 5654 5650 5648 5647 5648 5643 5640 5638 5635 5632 5630 5631 5631
5493 5494 5497 5501 5505 5509 5511 5513 5515 5525 5532 5537 5541 5545 5547 5549 5551 5552 5559 5569 5581 5593 5603 5613 5622 5631 5637 5643 5646 5646 5644 5643 5640 5639 5641 5640 5635 5632 5629 5626 5622 5622 5622
5485 5487 5491 5494 5499 5503 5505 5507 5509 5521 5530 5535 5538 5541 5542 5544 5545 5545 5550 5559 5569 5582 5595 5606 5612 5620 5628 5634 5638 5643 5645 5643 5639 5635 5635 5636 5632 5631 5625 5621 5619 5617 5615